STARLINK-30982, 58512

Orbit data source: Space-Track

STARLINK-30982, 58512 is a payload satellite owned by SpaceX/Seattle (US) in LEO that was launched on Thu, 07 Dec 2023 UTC via an FALCON 9 launch vehicle from the Air Force Eastern Test Range (AFETR). Payload-class satellites include a variety of spacecraft equipped with specific instruments for various scientific and technological missions. These include communications satellites like Starlink; space stations such as the ISS; scientific satellites like the Hubble; Earth observation satellites from companies like Planet Labs, Umbra, and HawkEye 360; GPS; miniature CubeSats for education and research; and military/defense satellites.

Loading next visibility...
Identifier
58512, 2023-191E
Orbit
LEO
Country
Flag of USUS
Related business
Manufacturer
SpaceX/Seattle
Mission
Operational Commercial Communications
Bus & Motor
STARLINK V2M, Unknown motor
Mass
730 kg wet, ~700 kg dry
Launch date (UTC)
2023-12-07 (3 years ago)
Launch vehicle
FALCON 9
Launch site
Air Force Eastern Test Range (AFETR)
Object type
Payload
Rocket body
Debris
Shape & HBR
Box + 2 Pan, 17.7 m
Radar Cross Section
33.884 m², Large (>1 m²)

Expand to show TLE details & history
Last TLE update: 2 days ago

TLE from 2 days ago
0 STARLINK-30982
1 58512U 23191E   26171.25862470 -.00001804  00000-0 -56066-4 0  9990
2 58512  43.0046 244.5509 0002348 293.5399  66.5206 15.27556370141154
Epoch: 2026-06-20T06:12Z
TLE epoch observation values (Epoch: 2026-06-20T06:12:25.174Z)
Latitude
0.00001°
Longitude
-117.02981°
Altitude
482.254 km
Speed
7.626 km/s
True Right ascension
16h 18m 12s
True Declination
0° 00' 00"
Sunlit
Object was in full shadow at epoch
Visualization orbit readout
Latitude
Unknown
Longitude
Unknown
Altitude
Unknown
Speed
Unknown
Apparent Right ascension
Unknown
Apparent Declination
Unknown
Sunlit
N/A
Visualization observer readout
Local Sidereal Time
21:52:10
Azimuth
Unknown
Elevation
Unknown
Doppler factor
Unknown
Orbital elements
Apogee altitude
486.676 km
Perigee altitude
483.453 km
Semi-major axis
6,863.201 km
Eccentricity
0.00023
Inclination
43.0046°
RAAN
244.5509°
Arg. of periapsis
293.5399°
True anomaly
66.54528°
Mean anomaly
66.5206°
Eccentric anomaly
66.53294°
Mean motion
3.81727 °/min
Orbital period
94.31 mins
BSTAR
-0.000056066
Loading maneuver chart data...
Computing Atmospheric mass density...
Loading historical data...
Loading historical data...
Loading historical data...
Loading historical data...
Loading historical data...
Loading historical data...
Loading historical data...

Documentation

Showing up to 5 results
|